Regional Weather Roundup
Issued by NWS New Orleans/Baton Rouge, LA

Home | Current Version | Previous Version | Graphics & Text | Print | Product List | Glossary On
Versions: 1 2 3 4 5 6 7 8 9 10 11 12 13 14 15 16 17 18 19 20 21 22 23 24 25 26 27 28 29 30 31 32 33 34 35 36 37 38 39 40 41 42 43 44 45 46 47 48 49 50
745
ASUS44 KLIX 251005
RWRLIX
NEW ORLEANS REGIONAL WEATHER ROUNDUP
NATIONAL WEATHER SERVICE NEW ORLEANS LA
500 AM CDT SAT OCT 25 2014

NOTE: "FAIR" INDICATES FEW OR NO CLOUDS BELOW 12,000 FEET WITH NO
      SIGNIFICANT WEATHER AND/OR OBSTRUCTIONS TO VISIBILITY.
      SKY/WX - SKY CONDITION AND SIGNIFICANT WEATHER.
      TMP - AIR TEMPERATURE.     DP    - DEWPOINT TEMPERATURE.
      RH  - RELATIVE HUMIDITY.   PRES  - PRESSURE.
      HI  - HEAT INDEX.          WCI   - WIND CHILL INDEX.

*  THESE STATIONS ARE NOT NWS OR FAA STATIONS AND ARE NOT UNDER
   NWS QUALITY CONTROL.

LAZ038-040-048-061>063-065>067-069-251100-
SOUTHEAST LOUISIANA

CITY           SKY/WX    TMP DP  RH WIND       PRES   REMARKS
N.O. AUDUBON     N/A     59  53  80 MISG        N/A
N.O. INTL ARPT CLEAR     60  51  72 N10       30.10R
N.O. LAKEFRONT CLEAR     66  52  60 NE16      30.10R
N.O. DOWNTOWN*   N/A     64  48  55 N6        30.11R
SLIDELL        CLEAR     48  44  86 N3        30.09R
BATON ROUGE    CLEAR     48  45  89 CALM      30.12R
BOOTHVILLE     CLEAR     68  59  73 VRB5      30.08R
BELLE CHASSE   CLEAR     50  47  89 NE3       30.10R
BOGALUSA*        N/A     44  41  89 CALM      30.12S
NEW ROADS*       N/A     47  46  97 CALM      30.13R
GONZALES*        N/A     50  50  99 CALM      30.11R
HAMMOND*       CLEAR     46  43  87 CALM      30.12R
HOUMA*         CLEAR     55  51  89 CALM      30.10R
PORT FOURCHON* SUNNY     64  57  77 N8        30.12R

$$

MSZ070-080>082-251100-
SOUTHERN MISSISSIPPI

CITY           SKY/WX    TMP DP  RH WIND       PRES   REMARKS
MCCOMB         CLEAR     50  44  80 NW3       30.11S
GULFPORT       CLEAR     50  47  89 CALM      30.08S
BILOXI         CLEAR     54  47  78 N5        30.09R
PASCAGOULA     CLEAR     44  42  93 CALM      30.08S

$$

COASTAL OBSERVATIONS
LAKE AND NEARSHORE STATIONS

STATION/POSITION TIME  TEMP    WIND        PRES    WAVE
                       AIR SEA DIR/SP/G            HT/PER
                 (UTC) (F)     (DEG/KT/KT) (MB)    (FT/S)
PASCAGOULA       1000   55     360/  9/ 12 1017.8
WAVELAND YACHT   1000   59     360/  7/  9 1018.0
GRAND ISLE       1000   67 71   40/ 12/ 15 1018.9
SOUTHWEST PASS   1000   70 80              1018.3
NEW CANAL        1000   67 69   20/ 12/ 13 1019.4
SHELL BEACH      1000   66 66   20/ 15/ 17 1018.6

OFFSHORE STATIONS

STATION/POSITION TIME  TEMP    WIND        PRES    WAVE
                       AIR SEA DIR/SP/G            HT/PER
                 (UTC) (F)     (DEG/KT/KT) (MB)    (FT/S)
64 S DAUPHIN ISL 0923   73 78   20/ 16/ 17 1017.8    3/ 5

$$




USA.gov is the U.S. government's official web portal to all federal, state and local government web resources and services.